sat.trackr.live / text

‹ back to catalog

INSAT-3D

NORAD 39216 · 2013-038B

PAYLOAD ACTIVE UNKNOWN

§ Identity

Operator
Country
IND
Launch date
2013-07-25
Launch site
FRGUI
Launch vehicle
Mass (kg)
RCS (m²)
22.16

Purposes: comms, earth_obs

External: N2YO · Heavens-Above · Gunter

§ Orbital elements

Epoch: 2026-05-24T23:13:30.722016Z

Period
1,436.06 min
Inclination
1.8683°
Eccentricity
0.0000822
Mean motion
1.00274270 rev/d
Perigee alt
35,782.4 km
Apogee alt
35,789.4 km
Semi-major
42,164.0 km
B*
0.0000e+0
RAAN
82.8154°
Arg perigee
318.8689°
Mean anomaly
318.7596°
Rev number
4,684

§ Raw data

INSAT-3D1 39216U 13038B   26144.96771669 -.00000341  00000+0  00000+0 0  99912 39216   1.8683  82.8154 0000822 318.8689 318.7596  1.00274270 46846

JSON: /api/v1/satellites/39216 · /tle

For live sub-satellite position, see the globe view (requires WebGL).

§ Visibility from observer

Set your observer location to see the next 7 days of passes ≥ 10°. The values pass through the URL so the page stays shareable.

No JS? Fill the form by hand. The geolocation button needs JavaScript.